Find Eutelsat W4

NORAD ID: 26369 Int'l Des: 2000-028 Owner: EUTEL Country: I-EUT operational
HEOCIRCULAR

現在のビュー

3D地球を読み込み中...

Eutelsat W4について

説明を読み込み中...

次回通過

Passes for default location (London). Set your location on the main map for personalized predictions.

高度履歴

Loading altitude history...

軌道要素

1 26369U 00028A 26149.58135806 -.00000217 00000-0 00000-0 0 9995
2 26369 8.5445 62.0974 0009927 276.7612 262.5852 0.98472156 94948
Epoch: May 29, 2026 • Age: 23 hours

現在のステータス

高度 36320.0 km
速度 3.05 km/s
衛星直下点 3.56°N, 139.06°E
打ち上げ日 May 24, 2000
運用期間 26 years
タイプ other

技術仕様

分類 Payload
質量 3190.00 kg
乾燥質量 1285.00 kg
総質量 3190.00 kg
長さ 4.60 m
直径 2.50 m
スパン 29.00 m
形状 Box + 2 Pan
製造者 ALC
バスタイプ Spacebus 3000B2
フェーズステータス Renamed
所有者/国 EUTEL/I-EUT

Most Searched